Regional Weather Roundup
Issued by NWS

Home | Current Version | Previous Version | Graphics & Text | Print | Product List | Glossary On
Versions: 1 2 3 4 5 6 7 8 9 10 11 12 13 14 15 16 17 18 19 20 21 22 23 24 25 26 27 28 29 30 31 32 33 34 35 36 37 38 39 40 41 42 43 44 45 46 47 48 49 50
000
ASUS43 KDTX 200201
RWRMI
MICHIGAN HOURLY REGIONAL WEATHER ROUNDUP
NATIONAL WEATHER SERVICE DETROIT/PONTIAC MI
1000 PM EDT THU OCT 19 2017

NOTE: "FAIR" INDICATES FEW OR NO CLOUDS BELOW 12,000 FEET WITH NO
SIGNIFICANT WEATHER AND/OR OBSTRUCTION TO VISIBILITY.

MIZ047>049-052>055-059>063-066>070-074>076-081>083-200300-
SOUTHEAST LOWER MICHIGAN

CITY           SKY/WX    TMP DP  RH WIND       PRES   REMARKS
ADRIAN         CLEAR     48  33  56 CALM      30.19R
ALMA           CLEAR     51  32  48 W7        30.17R
ANN ARBOR      CLEAR     42  37  82 CALM      30.17R
BAD AXE        CLOUDY    47  32  55 W3        30.14S
CARO           CLOUDY    50  29  45 CALM      30.14S
DETROIT CITY   CLEAR     56  33  42 W3        30.16S
DETROIT        PTCLDY    57  32  38 W5        30.17S
FLINT          CLOUDY    51  35  54 W6        30.16R
GROSSE ILE     CLEAR     55  38  53 CALM      30.16S
HILLSDALE      CLEAR     50  28  43 W3        30.19R
HOWELL         CLEAR     52  33  48 W5        30.17S

CITY           SKY/WX    TMP DP  RH WIND       PRES   REMARKS
JACKSON        CLEAR     47  37  68 SW5       30.18R
LAMBERTVILLE   CLEAR     50  40  69 CALM      30.18R
LANSING        CLEAR     53  30  41 W6        30.18S
LAPEER         FAIR      46  32  58 CALM      30.16R
MASON          CLEAR     52  33  48 CALM      30.18R
MONROE         CLOUDY    50  38  64 CALM      30.16S
MT. CLEMENS    PTCLDY    56  31  39 W5        30.14R
PONTIAC        PTCLDY    50  39  66 W5        30.15S
PORT HOPE        N/A     56  34  43 W5        30.11R
PORT HURON     CLOUDY    43  36  75 CALM      30.15R
TRI CITIES     CLOUDY    51  33  50 W7        30.15S
MIDLAND        FAIR      44  33  65 CALM      30.14S
TROY           CLEAR     55  32  41 CALM      30.18R
SAGINAW HB     CLOUDY    52  30  43 SW6       30.14S
$$
MIZ043>046-050>051-056>058-064>065-071>073-077>080-200300-
SOUTHWEST LOWER MICHIGAN

CITY           SKY/WX    TMP DP  RH WIND       PRES   REMARKS
BATTLE CREEK   CLEAR     50  36  58 SW3       30.20R
BENTON HARBOR  CLEAR     44  40  85 CALM      30.19S
BIG RAPIDS     CLEAR     46  35  67 CALM      30.15S
COLDWATER      CLEAR     46  33  59 CALM      30.19S
FREMONT        FAIR      48  39  70 CALM      30.16S
HOLLAND        CLEAR     48  42  80 S3        30.18F
GRAND RAPIDS   PTCLDY    51  38  60 SW6       30.18S
IONIA          FAIR      51  33  49 W7        30.17S
KALAMAZOO      CLEAR     50  33  52 CALM      30.20R
LUDINGTON      CLEAR     45  40  83 CALM      30.13S
MARSHALL       CLEAR     45  34  65 CALM      30.19R
MOUNT PLEASANT CLOUDY    48  36  63 SW5       30.15S
MUSKEGON       PTCLDY    51  43  74 S3        30.16F
SOUTH HAVEN    CLEAR     45  41  86 CALM      30.19S
$$
MIZ016>042-200300-
NORTHERN LOWER MICHIGAN

CITY           SKY/WX    TMP DP  RH WIND       PRES   REMARKS
ALPENA         CLOUDY    51  33  50 SW6       30.10R
BEAVER ISLAND  CLEAR     57  49  74 SW12      30.07S
BELLAIRE       CLEAR     43  40  88 CALM      30.12R
CADILLAC       CLOUDY    48  32  55 SW3       30.13S
CHARLEVOIX     CLEAR     54  41  62 S7        30.12S
FRANKFORT      CLEAR     56  47  72 CALM      30.12R
GAYLORD        CLOUDY    47  31  53 SW7       30.11R
GRAYLING       CLOUDY    42  34  73 CALM      30.13R
HARBOR SPRINGS PTCLDY    54  41  60 W6        30.09R
HOUGHTON LAKE  CLOUDY    49  34  56 SW3       30.13S
MANISTEE       CLEAR     44  39  82 CALM      30.13S
OSCODA         CLOUDY    51  27  39 SW5       30.11R
PELLSTON       CLOUDY    55  39  54 W7        30.08R
ROGERS CITY    CLOUDY    52  34  50 SW9       30.08R
TRAVERSE CITY  PTCLDY    52  35  52 SE3       30.10S
$$
MIZ007>008-015-200300-
EASTERN UPPER MICHIGAN

CITY           SKY/WX    TMP DP  RH WIND       PRES   REMARKS
KINROSS        CLOUDY    49  33  54 W5        30.05S
MACKINAC ISLAN PTCLDY    58  49  71 SW14G20   30.05S
NEWBERRY       CLOUDY    47  38  71 SW8       30.04S
S. S. MARIE    CLOUDY    48  34  58 W3        30.03S
MUNISING         N/A     48  35  60 SW7       30.01F
$$
MIZ004>006-011>014-085-200300-
CENTRAL UPPER MICHIGAN

CITY           SKY/WX    TMP DP  RH WIND       PRES   REMARKS
MANISTIQUE     PTCLDY    54  48  82 SW6       30.05S
ESCANABA       PTCLDY    55  47  74 SW7       30.04S
MENOMINEE      CLEAR     55  41  59 SW5       30.07S
SAWYER-GWINN   CLEAR     52  32  46 S8        30.02F
$$
MIZ001>003-009>011-084-200300-
WESTERN UPPER MICHIGAN

CITY           SKY/WX    TMP DP  RH WIND       PRES   REMARKS
IRON MOUNTAIN  PTCLDY    55  30  38 S7        30.02F
HOUGHTON       CLOUDY    53  30  41 S5        29.95F
COPPER HARBOR    N/A     52  30  43 W8        29.95F
IRONWOOD       CLEAR     60  33  36 S7        29.96S
$$

ABBREVIATIONS USED IN REMARKS
   TC - TEMPERATURE IN CELSIUS
  WCI - WIND CHILL INDEX
   HX - HEAT INDEX
  VSB - VISIBILITY





USA.gov is the U.S. government's official web portal to all federal, state and local government web resources and services.